Tiempo atmosférico en la estación meteorológica de Cañaveral, Cáceres (373 m.)



Fecha
DESCASC
Temp. máxima en grados centígrados (hora)
DESCASC
Temp. mínima en grados centígrados (hora)
DESCASC
Temp. media en grados centígrados
DESCASC
Racha de viento máxima en m/sg (hora)
DESCASC
Velocidad máxima media en intervalos de 10 minutos(hora)
DESCASC
Precipitaciones diarias en mm
DESCASC
Precipitaciones de 00:00 a 06:00 en mm
DESCASC
Precipitaciones de 06:00 a 12:00 en mm
DESCASC
Precipitaciones de 12:00 a 18:00 en mm
DESCASC
Precipitaciones de 18:00 a 24:00 en mm
DESCASC
05-12-2019 14.4 (15:20) 8 (05:50) 11.2 12.22 (06:10) 8.33 (05:50) 0 0 0 0 0
04-12-2019 12.4 (13:00) 6.8 (08:20) 9.6 9.17 (19:20) 6.11 (19:10) 0 0 0 0 0
03-12-2019 12.6 (16:00) 5.3 (00:00) 9 11.94 (05:10) 8.61 (07:20) -- -- -- -- 0
02-12-2019 13.4 (15:10) 8.1 (00:00) 10.8 15.56 (04:10) 8.33 (07:40) -- -- -- -- --
01-12-2019 13.3 (14:00) 7.9 (00:00) 10.6 8.06 (14:40) 5.28 (14:40) -- -- -- -- --
30-11-2019 14.9 (14:20) 9.2 (00:00) 12 12.22 (17:50) 7.22 (14:30) -- -- -- -- --
29-11-2019 15.8 (14:20) 13 (00:00) 14.4 6.11 (12:40) 4.17 (16:10) -- -- -- -- --
28-11-2019 15.1 (17:10) 9.7 (00:00) 12.4 8.33 (14:40) 5 (14:40) 2.6 0 2.2 0.4 0
27-11-2019 14.6 (16:00) 9.6 (00:00) 12.1 11.11 (14:00) 7.22 (16:10) 0.4 0.4 0 0 0
26-11-2019 15 (16:20) 11.4 (00:00) 13.2 11.67 (17:20) 6.67 (17:20) 12.6 1.6 0.8 7.8 2.4
25-11-2019 16.1 (16:50) 11.5 (00:00) 13.8 9.17 (14:10) 6.39 (13:40) 4.2 2.6 1.6 0 0
24-11-2019 12.9 (15:10) 5.2 (00:00) 9 8.61 (00:30) 5.83 (00:30) 0.8 0 0 0 0.8
23-11-2019 14.4 (16:10) 7.4 (00:00) 10.9 15.56 (10:20) 8.89 (09:20) 0.2 0.2 0 0 0
22-11-2019 16 (14:00) 9.9 (00:00) 12.9 15.83 (18:40) 10 (15:20) 12.6 3 9.4 0.2 0
21-11-2019 13.4 (14:40) 7.4 (00:00) 10.4 4.72 (13:10) 3.06 (12:30) 9.6 2 5.4 2.2 0
20-11-2019 8.3 (02:40) 6.7 (00:00) 7.5 7.22 (18:00) 4.72 (16:50) 21.6 1.6 15.4 4.6 0
19-11-2019 10.4 (14:20) 3.2 (00:00) 6.8 8.06 (00:20) 5.28 (00:30) 0 0 0 0 0
18-11-2019 13.8 (16:20) 5.7 (00:00) 9.8 14.17 (01:40) 8.89 (01:50) 0 0 0 0 0
17-11-2019 11.1 (19:30) 6.1 (00:00) 8.6 12.5 (23:50) 8.33 (23:50) 5.6 0 1.4 2.6 1.6
16-11-2019 12.6 (15:00) 2.6 (00:00) 7.6 11.67 (10:20) 8.61 (04:40) 0 0 0 0 0
15-11-2019 11.3 (15:10) 4.5 (00:00) 7.9 15.28 (05:00) 9.72 (03:50) 0 0 0 0 0
14-11-2019 11.7 (14:50) 7.6 (00:00) 9.6 18.06 (18:30) 10.83 (15:10) 0.8 0 0.4 0.4 0
13-11-2019 20.3 (15:40) 10.3 (00:00) 15.3 12.22 (03:20) 8.33 (03:00) 0 0 0 0 0
12-11-2019 16.5 (16:10) 7.6 (00:00) 12 12.78 (01:20) 9.17 (01:20) 0 0 0 0 0
11-11-2019 16.3 (16:10) 9.5 (03:10) 12.9 11.39 (22:30) 7.78 (22:40) 0 0 0 0 0
10-11-2019 12.1 (11:40) 9.2 (00:00) 10.7 17.22 (18:20) 10.28 (17:50) 2 0 0 2 0
09-11-2019 13.8 (12:50) 4.4 (00:00) 9.1 13.33 (23:50) 8.89 (23:00) 4.8 0 0 4.2 0.6
08-11-2019 14.2 (15:50) 5.5 (00:00) 9.8 13.61 (23:00) 9.17 (23:00) 0 0 0 0 0

Gráficas

Temp. máximas Temp. mínimas Temp. medias Precipitaciones Rachas de viento máximas Velocidades máximas media en intervalos de 10 minutos

Datos horarios

Fecha y hora oficial Temperatura (ºC) Velocidad del viento (km/h) Dirección del viento Racha (km/h) Dirección de racha Precipitación (mm) Presión (hPa) Tendencia (hPa) Humedad (%)
2019-12-07 23:00:00 9.1 0 Calma 5 Este 0 -- -- 84
2019-12-07 22:00:00 9.1 2 Sudeste 4 Este 0 -- -- 82
2019-12-07 21:00:00 9.4 2 Sudeste 3 Sur 0 -- -- 81
2019-12-07 20:00:00 10.7 0 Calma 8 Norte 0 -- -- 78
2019-12-07 19:00:00 11.1 7 Norte 9 Norte 0 -- -- 78
2019-12-07 18:00:00 13.1 4 Norte 8 Sudoeste 0 -- -- 71
2019-12-07 17:00:00 15.1 4 Sudoeste 10 Norte 0 -- -- 67
2019-12-07 16:00:00 14.8 3 Norte 13 Noroeste 0 -- -- 67
2019-12-07 15:00:00 14.4 8 Norte 17 Norte 0 -- -- 69
2019-12-07 14:00:00 13.8 9 Este 23 Este 0 -- -- 68
2019-12-07 13:00:00 13 17 Este 23 Sudeste 0 -- -- 69
2019-12-07 12:00:00 12.1 8 Este 18 Este 0 -- -- 74
2019-12-07 11:00:00 9.6 3 Oeste 17 Nordeste 0 -- -- 85
2019-12-07 10:00:00 10.4 11 Nordeste 21 Nordeste 0 -- -- 77
2019-12-07 09:00:00 7.9 6 Nordeste 13 Nordeste 0 -- -- 85
2019-12-07 08:00:00 7.3 4 Nordeste 8 Nordeste 0 -- -- 85
2019-12-07 07:00:00 7.5 4 Este 9 Este 0 -- -- 84
2019-12-07 06:00:00 7.6 4 Oeste 10 Nordeste 0 -- -- 84
2019-12-07 05:00:00 7.5 6 Este 13 Nordeste 0 -- -- 86
2019-12-07 04:00:00 8.9 8 Nordeste 15 Nordeste 0 -- -- 79
2019-12-07 03:00:00 9.8 9 Nordeste 18 Nordeste 0 -- -- 76
2019-12-07 02:00:00 9.7 10 Nordeste 15 Nordeste 0 -- -- 77
2019-12-07 01:00:00 10.3 9 Nordeste 21 Nordeste 0 -- -- 74
2019-12-07 00:00:00 10.7 12 Nordeste 19 Nordeste 0 -- -- 72
2019-12-06 23:00:00 10.5 10 Nordeste 17 Este 0 -- -- 74
2019-12-06 22:00:00 11 11 Norte 17 Nordeste 0 -- -- 71
2019-12-06 21:00:00 11.5 13 Nordeste 18 Nordeste 0 -- -- 69
2019-12-06 20:00:00 11.4 9 Nordeste 16 Nordeste 0 -- -- 72
2019-12-06 19:00:00 11.5 12 Nordeste 16 Nordeste 0 -- -- 72
2019-12-06 18:00:00 13.3 8 Nordeste 18 Nordeste 0 -- -- 63
2019-12-06 17:00:00 14.9 12 Nordeste 23 Nordeste 0 -- -- 56
2019-12-06 16:00:00 15.4 14 Nordeste 24 Nordeste 0 -- -- 55
2019-12-06 15:00:00 15.5 17 Este 27 Este 0 -- -- 57
2019-12-06 14:00:00 15 17 Este 30 Este 0 -- -- 60
2019-12-06 13:00:00 14.6 19 Este 34 Este 0 -- -- 59
2019-12-06 12:00:00 13.8 19 Este 35 Este 0 -- -- 64
2019-12-06 11:00:00 12.8 21 Este 37 Este 0 -- -- 66
2019-12-06 10:00:00 11.6 22 Este 37 Este 0 -- -- 71
2019-12-06 09:00:00 9.9 17 Nordeste 23 Nordeste 0 -- -- 75
2019-12-06 08:00:00 9.6 15 Nordeste 25 Nordeste 0 -- -- 76
2019-12-06 07:00:00 9.7 16 Nordeste 26 Este 0 -- -- 76
2019-12-06 06:00:00 9.7 15 Nordeste 29 Este 0 -- -- 75
2019-12-06 05:00:00 10.1 15 Nordeste 29 Nordeste 0 -- -- 73
2019-12-06 04:00:00 10 21 Nordeste 32 Este 0 -- -- 74
2019-12-06 03:00:00 10.3 19 Nordeste 34 Nordeste 0 -- -- 73
2019-12-06 02:00:00 10.7 17 Nordeste 35 Nordeste 0 -- -- 72
2019-12-06 01:00:00 11 21 Nordeste 35 Nordeste 0 -- -- 71
2019-12-06 00:00:00 11.3 14 Nordeste 39 Este 0 -- -- 69
2019-12-05 23:00:00 12.1 19 Nordeste 33 Nordeste 0 -- -- 65
2019-12-05 22:00:00 10.8 14 Nordeste 31 Norte 0 -- -- 70
2019-12-05 21:00:00 10.3 22 Norte 32 Norte 0 -- -- 71
2019-12-05 20:00:00 11 19 Norte 28 Norte 0 -- -- 70
2019-12-05 19:00:00 11.8 11 Nordeste 17 Nordeste 0 -- -- 69
2019-12-05 18:00:00 12.6 9 Nordeste 30 Este 0 -- -- 67
2019-12-05 17:00:00 14 18 Este 28 Este 0 -- -- 61
2019-12-05 16:00:00 14.4 17 Nordeste 33 Este 0 -- -- 59
2019-12-05 15:00:00 14.2 19 Nordeste 37 Este 0 -- -- 61
2019-12-05 14:00:00 13.7 26 Nordeste 35 Nordeste 0 -- -- 62
2019-12-05 13:00:00 13.6 19 Nordeste 39 Nordeste 0 -- -- 62
2019-12-05 12:00:00 11.1 19 Nordeste 33 Nordeste 0 -- -- 67
2019-12-05 11:00:00 9.7 24 Norte 37 Nordeste 0 -- -- 68
2019-12-05 10:00:00 8.8 25 Norte 40 Norte 0 -- -- 69
2019-12-05 09:00:00 8.7 27 Norte 40 Norte 0 -- -- 69
2019-12-05 08:00:00 8.3 25 Norte 39 Norte 0 -- -- 70
2019-12-05 07:00:00 8 24 Norte 44 Norte 0 -- -- 72
2019-12-05 06:00:00 8 26 Norte 41 Norte 0 -- -- 72
2019-12-05 05:00:00 8.9 26 Norte 38 Norte 0 -- -- 73
2019-12-05 04:00:00 9.4 24 Norte 36 Norte 0 -- -- 72
2019-12-05 03:00:00 9.7 20 Norte 32 Norte 0 -- -- 72
2019-12-05 02:00:00 9.5 21 Norte 36 Norte 0 -- -- 73
2019-12-05 01:00:00 9.9 17 Norte 29 Norte 0 -- -- 71
2019-12-05 00:00:00 10 17 Norte 29 Norte 0 -- -- 71
2019-12-04 23:00:00 9.7 5 Noroeste 18 Norte 0 -- -- 72
2019-12-04 22:00:00 10.2 10 Nordeste 23 Norte 0 -- -- 69
2019-12-04 21:00:00 9.9 12 Norte 29 Norte 0 -- -- 69
2019-12-04 20:00:00 9.8 22 Norte 33 Norte 0 -- -- 69
2019-12-04 19:00:00 10.3 18 Norte 31 Norte 0 -- -- 66
2019-12-04 18:00:00 10.1 8 Norte 18 Norte 0 -- -- 72
2019-12-04 17:00:00 10.9 14 Norte 21 Norte 0 -- -- 66
2019-12-04 16:00:00 11.7 9 Norte 21 Norte 0 -- -- 68
2019-12-04 15:00:00 11.6 10 Norte 20 Norte -- -- -- 65
2019-12-04 14:00:00 12 16 Norte 27 Norte 0 -- -- 62
2019-12-04 13:00:00 12.4 16 Norte 28 Norte 0 -- -- 65
2019-12-04 12:00:00 11.2 14 Norte 29 Este 0 -- -- 66
2019-12-04 11:00:00 10.3 14 Norte 26 Este 0 -- -- 68
2019-12-04 10:00:00 8.5 13 Nordeste 22 Nordeste 0 -- -- 73
2019-12-04 09:00:00 8 10 Nordeste 19 Nordeste 0 -- -- 76
2019-12-04 08:00:00 7.1 7 Nordeste 15 Norte 0 -- -- 79
2019-12-04 07:00:00 7.2 10 Nordeste 17 Nordeste 0 -- -- 81
2019-12-04 06:00:00 8.2 11 Nordeste 18 Nordeste 0 -- -- 78
2019-12-04 05:00:00 8.8 8 Nordeste 15 Nordeste 0 -- -- 78
2019-12-04 04:00:00 8.9 8 Nordeste 18 Este 0 -- -- 77
2019-12-04 03:00:00 9.3 11 Nordeste 24 Este 0 -- -- 75
2019-12-04 02:00:00 9.6 15 Este 28 Este 0 -- -- 72
2019-12-04 01:00:00 9.8 14 Este 26 Este 0 -- -- 71
2019-12-04 00:00:00 9.7 14 Nordeste 22 Este 0 -- -- 70
2019-12-03 23:00:00 8.7 9 Nordeste 26 Nordeste 0 -- -- 73
2019-12-03 22:00:00 9.6 17 Nordeste 31 Nordeste 0 -- -- 71
2019-12-03 21:00:00 9 18 Nordeste 27 Nordeste 0 -- -- 72
2019-12-03 20:00:00 9.3 15 Nordeste 23 Nordeste 0 -- -- 71
2019-12-03 19:00:00 9.8 16 Nordeste 23 Nordeste 0 -- -- 68
2019-12-03 18:00:00 10.8 13 Nordeste 25 Nordeste -- -- -- 66
2019-12-03 17:00:00 12 18 Nordeste 28 Nordeste -- -- -- 61
2019-12-03 16:00:00 12.6 18 Nordeste 30 Nordeste -- -- -- 58
2019-12-03 15:00:00 12.3 18 Nordeste 30 Nordeste -- -- -- 58
2019-12-03 14:00:00 12 18 Nordeste 35 Nordeste -- -- -- 60
2019-12-03 13:00:00 10.8 17 Nordeste 34 Norte -- -- -- 64
2019-12-03 12:00:00 9.2 20 Norte 37 Norte -- -- -- 67
2019-12-03 11:00:00 8.3 24 Norte 40 Norte -- -- -- 67
2019-12-03 10:00:00 6.9 24 Norte 40 Norte -- -- -- 69
2019-12-03 09:00:00 5.9 21 Nordeste 36 Nordeste -- -- -- 73
2019-12-03 08:00:00 6.1 21 Nordeste 40 Norte -- -- -- 72
2019-12-03 07:00:00 5.9 23 Nordeste 41 Norte -- -- -- 73
2019-12-03 06:00:00 6.2 25 Norte 43 Norte -- -- -- 74
2019-12-03 05:00:00 6 31 Norte 41 Norte -- -- -- 76
2019-12-03 04:00:00 6.4 22 Norte 34 Norte -- -- -- 76
2019-12-03 03:00:00 7.6 16 Nordeste 30 Norte -- -- -- 72
2019-12-03 02:00:00 7.9 16 Nordeste 37 Nordeste -- -- -- 72
2019-12-03 01:00:00 8.6 23 Norte 33 Norte -- -- -- 70
2019-12-03 00:00:00 9.5 17 Nordeste 27 Nordeste -- -- -- 66
2019-12-02 23:00:00 10.6 20 Nordeste 39 Nordeste -- -- -- 63
2019-12-02 22:00:00 10.2 20 Nordeste 32 Norte -- -- -- 67
2019-12-02 21:00:00 10.1 14 Nordeste 26 Nordeste -- -- -- 68
2019-12-02 20:00:00 11 10 Nordeste 21 Nordeste -- -- -- 65
2019-12-02 19:00:00 12.1 13 Nordeste 23 Nordeste -- -- -- 61
2019-12-02 18:00:00 12 15 Nordeste 26 Nordeste -- -- -- 62
2019-12-02 17:00:00 12.2 17 Nordeste 38 Este -- -- -- 64
2019-12-02 16:00:00 13.3 18 Este 41 Este -- -- -- 59
2019-12-02 15:00:00 13.1 23 Nordeste 40 Este -- -- -- 58
2019-12-02 14:00:00 13 24 Este 37 Este -- -- -- 57
2019-12-02 13:00:00 12.8 18 Nordeste 30 Nordeste -- -- -- 61
2019-12-02 12:00:00 11.6 21 Nordeste 39 Nordeste -- -- -- 65
2019-12-02 11:00:00 10.1 21 Norte 40 Norte -- -- -- 70
2019-12-02 10:00:00 9.2 23 Norte 46 Norte -- -- -- 75
2019-12-02 09:00:00 9.1 21 Nordeste 46 Nordeste -- -- -- 74
2019-12-02 08:00:00 9.5 29 Nordeste 46 Nordeste -- -- -- 73
2019-12-02 07:00:00 8.9 13 Nordeste 40 Nordeste -- -- -- 80
2019-12-02 06:00:00 9.1 16 Nordeste 36 Norte -- -- -- 79
2019-12-02 05:00:00 8.8 20 Nordeste 56 Este -- -- -- 83
2019-12-02 04:00:00 8.9 26 Nordeste 51 Este -- -- -- 81
2019-12-02 03:00:00 8.9 18 Nordeste 31 Nordeste -- -- -- 85
2019-12-02 02:00:00 8.5 9 Nordeste 21 Nordeste -- -- -- 91
2019-12-02 01:00:00 8.9 10 Este 39 Nordeste -- -- -- 85
2019-12-02 00:00:00 8.6 10 Nordeste 27 Norte -- -- -- 87
2019-12-01 23:00:00 8 7 Nordeste 18 Norte -- -- -- 92
2019-12-01 22:00:00 8.3 6 Norte 18 Este -- -- -- 89
2019-12-01 21:00:00 8.6 10 Nordeste 18 Este -- -- -- 85
2019-12-01 20:00:00 9.2 6 Nordeste 14 Nordeste -- -- -- 86
2019-12-01 19:00:00 9.5 5 Este 12 Nordeste -- -- -- 91
2019-12-01 18:00:00 9.8 6 Nordeste 13 Norte -- -- -- 92
2019-12-01 17:00:00 9.8 5 Este 18 Norte -- -- -- 91
2019-12-01 16:00:00 9.5 8 Norte 22 Norte -- -- -- 91
2019-12-01 15:00:00 9.7 5 Norte 29 Noroeste -- -- -- 85
2019-12-01 14:00:00 13.3 13 Sudoeste 22 Sudoeste -- -- -- 74
2019-12-01 13:00:00 11.3 6 Oeste 21 Sudoeste -- -- -- 88
2019-12-01 12:00:00 11.3 15 Sudoeste 22 Sudoeste -- -- -- 92
2019-12-01 11:00:00 10.7 16 Sudoeste 25 Sudoeste -- -- -- 97
2019-12-01 10:00:00 10 9 Sudoeste 27 Sudoeste -- -- -- 98
2019-12-01 09:00:00 9.8 10 Sudoeste 17 Sur 0 -- -- 98
2019-12-01 08:00:00 9.7 10 Sur 25 Sudoeste 0 -- -- 98
2019-12-01 07:00:00 9.5 12 Sudoeste 21 Sudoeste 0 -- -- 98
2019-12-01 06:00:00 9.3 10 Sudoeste 19 Sudoeste 0 -- -- 97
2019-12-01 05:00:00 8.9 3 Sudoeste 10 Sudoeste 0 -- -- 97
2019-12-01 04:00:00 8.6 3 Sur 12 Sudeste 0 -- -- 96
2019-12-01 03:00:00 8.7 4 Sur 8 Sudoeste 0 -- -- 96
2019-12-01 02:00:00 8.5 5 Sudoeste 8 Sudoeste 0 -- -- 97
2019-12-01 01:00:00 9 6 Sur 8 Sur 0 -- -- 96
2019-12-01 00:00:00 9.3 4 Sudoeste 15 Oeste 0 -- -- 97
2019-11-30 23:00:00 10.2 12 Oeste 22 Oeste 0 -- -- 97
2019-11-30 22:00:00 10.1 13 Oeste 18 Oeste 0 -- -- 96
2019-11-30 21:00:00 10.6 8 Oeste 17 Sudoeste 0 -- -- 95
2019-11-30 20:00:00 11.3 10 Oeste 20 Oeste 0 -- -- 93
2019-11-30 19:00:00 11.7 15 Oeste 31 Oeste 0 -- -- 92
2019-11-30 18:00:00 12.5 22 Oeste 44 Oeste 0 -- -- 92
2019-11-30 17:00:00 14 12 Sudoeste 31 Sudoeste 0 -- -- 96
2019-11-30 16:00:00 14.2 20 Sudoeste 33 Sudoeste 0 -- -- 93
2019-11-30 15:00:00 14.6 22 Sudoeste 42 Sudoeste 0 -- -- 89
2019-11-30 14:00:00 14.6 20 Sudoeste 37 Sudoeste 0 -- -- 86
2019-11-30 13:00:00 14.4 22 Sudoeste 34 Sudoeste 0 -- -- 86
2019-11-30 12:00:00 14.3 18 Sudoeste 29 Sudoeste 0 -- -- 85
2019-11-30 11:00:00 13.6 12 Sudoeste 19 Sudoeste 0 -- -- 89
2019-11-30 10:00:00 12.8 2 Sudoeste 8 Sur 0 -- -- 94
2019-11-30 09:00:00 12.2 2 Sur 5 Sudeste 0 -- -- 96
2019-11-30 08:00:00 12.2 4 Sur 6 Sur 0 -- -- 96
2019-11-30 07:00:00 12.2 0 Calma 8 Sur 0 -- -- 96
2019-11-30 06:00:00 12.4 8 Sur 11 Sur 0 -- -- 95
2019-11-30 05:00:00 12.9 8 Sudoeste 10 Sudoeste 0 -- -- 95
2019-11-30 04:00:00 13.3 7 Sudoeste 16 Sudoeste 0 -- -- 94
2019-11-30 03:00:00 13.3 7 Sudoeste 11 Sudoeste 0 -- -- 95
2019-11-30 02:00:00 13.7 5 Sudoeste 8 Sudoeste 0 -- -- 94
2019-11-30 01:00:00 13.9 0 Calma 3 Sudoeste 0 -- -- 94
2019-11-30 00:00:00 13.9 2 Sudoeste 4 Sudoeste 0 -- -- 94
2019-11-29 23:00:00 14 3 Sur 4 Sudoeste 0 -- -- 93
2019-11-29 22:00:00 14.1 2 Sur 6 Sudoeste 0 -- -- 93
2019-11-29 21:00:00 14.1 2 Sudoeste 5 Oeste 0 -- -- 92
2019-11-29 20:00:00 14.2 5 Sudoeste 11 Sudoeste 0 -- -- 91
2019-11-29 19:00:00 14.9 6 Sudoeste 12 Sudoeste 0 -- -- 90
2019-11-29 18:00:00 15.3 8 Sudoeste 18 Sudoeste 0 -- -- 88
2019-11-29 17:00:00 15.7 10 Sudoeste 21 Sudoeste 0 -- -- 87
2019-11-29 16:00:00 15.6 9 Sudoeste 19 Sudoeste 0 -- -- 89
2019-11-29 15:00:00 15.7 8 Sudoeste 16 Sudoeste 0 -- -- 86
2019-11-29 14:00:00 15.5 10 Sudoeste 18 Sudoeste 0 -- -- 85
2019-11-29 13:00:00 15.6 14 Sudoeste 22 Sur 0 -- -- 86
2019-11-29 12:00:00 15.3 13 Sudoeste 19 Sudoeste 0 -- -- 89
2019-11-29 11:00:00 13.9 7 Sudoeste 12 Sudoeste 0 -- -- 94
2019-11-29 10:00:00 13.4 2 Sudoeste 13 Sudoeste 0 -- -- 96
2019-11-29 09:00:00 13.1 6 Sudoeste 10 Sudoeste 0 -- -- 96
2019-11-29 08:00:00 13 4 Sudoeste 10 Sudoeste 0 -- -- 96
2019-11-29 07:00:00 13 3 Sudoeste 9 Sudoeste 0 -- -- 96
2019-11-29 06:00:00 13 5 Sudoeste 15 Sudoeste 0 -- -- 96
2019-11-29 05:00:00 13.2 7 Sudoeste 12 Sudoeste 0 -- -- 95
2019-11-29 04:00:00 13.1 5 Sudoeste 12 Sudoeste 0 -- -- 96
2019-11-29 03:00:00 13 6 Sudoeste 9 Oeste 0 -- -- 96
2019-11-29 02:00:00 13.1 6 Sudoeste 13 Sudoeste 0 -- -- 95
2019-11-29 01:00:00 13.2 8 Sudoeste 17 Sudoeste 0 -- -- 95
2019-11-29 00:00:00 13.3 11 Sudoeste 18 Sudoeste 0 -- -- 94
2019-11-28 23:00:00 13.3 13 Sudoeste 22 Sudoeste 0 -- -- 93
2019-11-28 22:00:00 13.1 3 Sudoeste 10 Sudoeste 0 -- -- 93
2019-11-28 21:00:00 13.3 7 Sudoeste 13 Sudoeste 0 -- -- 93
2019-11-28 20:00:00 13.5 3 Sur 8 Sudoeste 0 -- -- 91
2019-11-28 19:00:00 13.5 3 Oeste 12 Sudoeste 0 -- -- 90
2019-11-28 18:00:00 14.1 8 Sudoeste 23 Sudoeste 0 -- -- 87
2019-11-28 17:00:00 14.7 16 Sudoeste 28 Sudoeste 0 -- -- 87
2019-11-28 16:00:00 14 14 Sudoeste 23 Sudoeste 0 -- -- 89
2019-11-28 15:00:00 13.8 15 Sudoeste 30 Sudoeste 0.2 -- -- 91
2019-11-28 14:00:00 12.9 15 Sudoeste 23 Sudoeste 0.2 -- -- 94
2019-11-28 13:00:00 12.6 10 Sudoeste 17 Sudoeste 0 -- -- 95
2019-11-28 12:00:00 12.1 5 Sur 17 Sudoeste 0.4 -- -- 97
2019-11-28 11:00:00 11.3 6 Sur 10 Sudoeste 0.2 -- -- 97
2019-11-28 10:00:00 10.7 2 Sudeste 10 Nordeste 0.4 -- -- 97
2019-11-28 09:00:00 10.3 0 Calma 7 Este 1 -- -- 96
2019-11-28 08:00:00 10.1 5 Nordeste 8 Nordeste 0.2 -- -- 95
2019-11-28 07:00:00 10.1 0 Calma 3 Norte 0 -- -- 95
2019-11-28 06:00:00 10 0 Calma 4 Sudeste 0 -- -- 94
2019-11-28 05:00:00 10.1 0 Calma 4 Sur 0 -- -- 93
2019-11-28 04:00:00 10.1 0 Calma 3 Este 0 -- -- 93
2019-11-28 03:00:00 10.1 0 Calma 5 Sur 0 -- -- 93
2019-11-28 02:00:00 9.9 5 Sur 10 Sudoeste 0 -- -- 94
2019-11-28 01:00:00 9.8 5 Oeste 11 Oeste 0 -- -- 93
2019-11-28 00:00:00 9.9 4 Oeste 8 Sudoeste 0 -- -- 93
2019-11-27 23:00:00 10 6 Sudoeste 10 Sudoeste 0 -- -- 90
2019-11-27 22:00:00 10.8 5 Sudoeste 9 Oeste 0 -- -- 87
2019-11-27 21:00:00 11.5 4 Oeste 18 Oeste 0 -- -- 84
2019-11-27 20:00:00 12.5 14 Sudoeste 22 Sudoeste 0 -- -- 81
2019-11-27 19:00:00 12.5 7 Sudoeste 13 Sudoeste 0 -- -- 81
2019-11-27 18:00:00 13.3 10 Sudoeste 25 Oeste 0 -- -- 77
2019-11-27 17:00:00 -- 23 Oeste 37 Oeste 0 -- -- --
2019-11-27 16:00:00 14.6 22 Oeste 40 Oeste 0 -- -- 67
2019-11-27 15:00:00 13.9 13 Oeste 30 Sudoeste 0 -- -- 79
2019-11-27 14:00:00 13.4 25 Oeste 40 Oeste 0 -- -- 80
2019-11-27 06:00:00 -- -- -- -- -- -- -- -- --
2019-11-27 05:00:00 -- -- -- -- -- -- -- -- --
2019-11-27 04:00:00 -- -- -- -- -- -- -- -- --
2019-11-27 03:00:00 -- -- -- -- -- -- -- -- --
2019-11-27 02:00:00 12.2 9 Oeste 16 Oeste 0 -- -- 97
2019-11-27 01:00:00 12.3 11 Oeste 21 Sudoeste 0.2 -- -- 97
2019-11-27 00:00:00 12.4 12 Sudoeste 32 Oeste 2.2 -- -- 97
2019-11-26 23:00:00 12.8 5 Oeste 22 Sudoeste 0 -- -- 94
2019-11-26 22:00:00 13 11 Sudoeste 18 Sudoeste 0 -- -- 94
2019-11-26 21:00:00 13.2 12 Sudoeste 23 Sudoeste 0 -- -- 94
2019-11-26 20:00:00 13.5 15 Sudoeste 22 Sudoeste 0 -- -- 96
2019-11-26 19:00:00 14.1 13 Sudoeste 31 Sudoeste 0.2 -- -- 95
2019-11-26 18:00:00 14.6 24 Sudoeste 42 Sudoeste 0.2 -- -- 94
2019-11-26 17:00:00 14.9 19 Sudoeste 38 Sur 0 -- -- 93
2019-11-26 16:00:00 14.9 21 Sudoeste 32 Sudoeste 0 -- -- 94
2019-11-26 15:00:00 14.4 15 Sudoeste 23 Sudoeste 3.4 -- -- 96
2019-11-26 14:00:00 14.5 11 Sudoeste 19 Sur 2.4 -- -- 96
2019-11-26 13:00:00 14.4 14 Sur 23 Sur 1.8 -- -- 96
2019-11-26 12:00:00 14.5 17 Sur 23 Sur 0.4 -- -- 95
2019-11-26 11:00:00 14.1 12 Sur 21 Sur 0 -- -- 97
2019-11-26 10:00:00 13.6 14 Sur 20 Sur 0 -- -- 97
2019-11-26 09:00:00 13.1 10 Sur 16 Sur 0 -- -- 97
2019-11-26 08:00:00 12.5 0 Calma 4 Sudeste 0.2 -- -- 97
2019-11-26 07:00:00 12.4 3 Sudeste 10 Este 0.2 -- -- 97
2019-11-26 06:00:00 12.2 4 Nordeste 9 Nordeste 1.2 -- -- 97
2019-11-26 05:00:00 11.8 0 Calma 4 Nordeste 0.4 -- -- 95
2019-11-26 04:00:00 11.8 0 Calma 5 Este 0 -- -- 94
2019-11-26 03:00:00 11.7 3 Sudeste 4 Sudeste 0 -- -- 94
2019-11-26 02:00:00 11.4 3 Este 6 Este 0 -- -- 94
2019-11-26 01:00:00 12.4 0 Calma 5 Oeste 0 -- -- 92
2019-11-26 00:00:00 12.8 3 Oeste 8 Oeste 0 -- -- 90
2019-11-25 23:00:00 12.7 5 Oeste 10 Oeste 0 -- -- 90
2019-11-25 22:00:00 13.2 4 Sudoeste 10 Oeste 0 -- -- 88
2019-11-25 21:00:00 13.9 6 Oeste 10 Oeste 0 -- -- 87
2019-11-25 20:00:00 14.1 3 Oeste 5 Oeste 0 -- -- 85
2019-11-25 19:00:00 14.3 0 Calma 6 Noroeste 0 -- -- 85
2019-11-25 18:00:00 14.9 0 Calma 21 Oeste 0 -- -- 83
2019-11-25 17:00:00 16 17 Oeste 24 Oeste 0 -- -- 79
2019-11-25 16:00:00 15.6 10 Oeste 22 Oeste 0 -- -- 87
2019-11-25 15:00:00 15 13 Oeste 33 Oeste 0 -- -- 88
2019-11-25 14:00:00 15.4 23 Oeste 33 Sudoeste 0 -- -- 83
2019-11-25 13:00:00 15.6 14 Oeste 31 Oeste 0 -- -- 85
2019-11-25 12:00:00 14.8 20 Oeste 28 Oeste 0 -- -- 88
2019-11-25 11:00:00 14 6 Sudoeste 12 Sudoeste 0 -- -- 97
2019-11-25 10:00:00 13.2 6 Oeste 9 Oeste 0 -- -- 97
2019-11-25 09:00:00 12.9 4 Oeste 6 Oeste 1 -- -- 97
2019-11-25 08:00:00 12.7 0 Calma 3 Norte 0.4 -- -- 96
2019-11-25 07:00:00 12.7 0 Calma 5 Oeste 0.2 -- -- 96
2019-11-25 06:00:00 12.6 0 Calma 12 Oeste 0 -- -- 96
2019-11-25 05:00:00 12.5 8 Oeste 17 Oeste 0.4 -- -- 96
2019-11-25 04:00:00 12.3 6 Sudoeste 10 Sudoeste 1.4 -- -- 96
2019-11-25 03:00:00 12.2 4 Sur 16 Sudoeste 0.6 -- -- 95
2019-11-25 02:00:00 12 10 Sudoeste 19 Sudoeste 0.2 -- -- 95
2019-11-25 01:00:00 11.7 10 Sudoeste 18 Sudoeste 0 -- -- 95
2019-11-25 00:00:00 11.6 10 Sudoeste 24 Sudoeste 0.8 -- -- 94
2019-11-24 23:00:00 12 12 Sudoeste 19 Sudoeste 0 -- -- 89
2019-11-24 22:00:00 12 8 Sur 14 Sur 0 -- -- 85
2019-11-24 21:00:00 11.9 4 Sur 10 Sur 0 -- -- 84
2019-11-24 20:00:00 12 4 Sudoeste 9 Sudoeste 0 -- -- 82
2019-11-24 19:00:00 12 6 Sudoeste 10 Sudoeste 0 -- -- 80
2019-11-24 18:00:00 12.2 6 Sudoeste 12 Oeste 0 -- -- 79
2019-11-24 17:00:00 12.4 9 Oeste 25 Sudoeste 0 -- -- 79
2019-11-24 16:00:00 12.8 14 Oeste 22 Oeste 0 -- -- 74
2019-11-24 15:00:00 12.7 10 Oeste 24 Oeste 0 -- -- 75
2019-11-24 14:00:00 12.4 17 Oeste 25 Sudoeste 0 -- -- 74
2019-11-24 13:00:00 12.1 16 Oeste 24 Oeste 0 -- -- 74
2019-11-24 12:00:00 11.6 12 Sudoeste 18 Sudoeste 0 -- -- 76
2019-11-24 11:00:00 10 9 Sudoeste 17 Oeste 0 -- -- 84
2019-11-24 10:00:00 7 2 Sudoeste 5 Este 0 -- -- 93
2019-11-24 09:00:00 5.4 3 Norte 9 Sudoeste 0 -- -- 94
2019-11-24 08:00:00 5.2 0 Calma 9 Este 0 -- -- 92
2019-11-24 07:00:00 5.6 6 Este 12 Oeste 0 -- -- 90
2019-11-24 06:00:00 7 11 Oeste 25 Oeste 0 -- -- 84
2019-11-24 05:00:00 6.7 9 Oeste 21 Noroeste 0 -- -- 85
2019-11-24 04:00:00 7.3 13 Oeste 24 Oeste 0 -- -- 83
2019-11-24 03:00:00 6.7 13 Oeste 26 Oeste 0 -- -- 86
2019-11-24 02:00:00 7.7 17 Oeste 27 Oeste 0 -- -- 83
2019-11-24 01:00:00 9.2 19 Oeste 31 Oeste 0 -- -- 74
2019-11-24 00:00:00 7.4 16 Oeste 25 Oeste 0 -- -- 85
2019-11-23 23:00:00 8.6 21 Oeste 33 Oeste 0 -- -- 80
2019-11-23 22:00:00 8.5 22 Oeste 30 Oeste 0 -- -- 79
2019-11-23 21:00:00 9.6 17 Oeste 36 Noroeste 0 -- -- 71
2019-11-23 20:00:00 11 23 Oeste 33 Oeste 0 -- -- 64
2019-11-23 19:00:00 11.2 15 Oeste 33 Oeste 0 -- -- 61
2019-11-23 18:00:00 12.3 21 Oeste 39 Oeste 0 -- -- 54
2019-11-23 17:00:00 13.7 24 Noroeste 42 Oeste 0 -- -- 50
2019-11-23 16:00:00 13.9 21 Oeste 39 Noroeste 0 -- -- 53
2019-11-23 15:00:00 13.2 27 Oeste 41 Oeste 0 -- -- 53
2019-11-23 14:00:00 12.6 23 Oeste 37 Oeste 0 -- -- 57
2019-11-23 13:00:00 13.1 24 Oeste 37 Oeste 0 -- -- 56
2019-11-23 12:00:00 12.7 20 Noroeste 45 Oeste 0 -- -- 59
2019-11-23 11:00:00 11.2 22 Oeste 56 Oeste 0 -- -- 65
2019-11-23 10:00:00 10.4 31 Oeste 50 Oeste 0 -- -- 63
2019-11-23 09:00:00 9 27 Oeste 47 Oeste 0 -- -- 71
2019-11-23 08:00:00 8 21 Oeste 30 Oeste 0 -- -- 78
2019-11-23 07:00:00 7.7 8 Oeste 37 Noroeste 0 -- -- 80
2019-11-23 06:00:00 8.8 25 Noroeste 37 Oeste 0 -- -- 76
2019-11-23 05:00:00 8.5 27 Oeste 41 Oeste 0 -- -- 80
2019-11-23 04:00:00 8.5 22 Oeste 34 Oeste 0 -- -- 81
2019-11-23 03:00:00 9 23 Oeste 42 Oeste 0 -- -- 79
2019-11-23 02:00:00 9.7 22 Oeste 40 Oeste 0 -- -- 81
2019-11-23 01:00:00 10 26 Oeste 40 Oeste 0.2 -- -- 87
2019-11-23 00:00:00 10.7 24 Oeste 53 Oeste 0 -- -- 84
2019-11-22 23:00:00 11.3 31 Oeste 45 Oeste 0 -- -- 85
2019-11-22 22:00:00 11.4 22 Sudoeste 37 Oeste 0 -- -- 84
2019-11-22 21:00:00 11 26 Sudoeste 36 Sudoeste 0 -- -- 83
2019-11-22 20:00:00 11.2 24 Sudoeste 44 Oeste 0 -- -- 82
2019-11-22 19:00:00 12.5 26 Oeste 57 Oeste 0 -- -- 73
2019-11-22 18:00:00 13.8 18 Oeste 50 Oeste 0 -- -- 66
2019-11-22 17:00:00 15.3 27 Oeste 50 Oeste 0 -- -- 69
2019-11-22 16:00:00 15.3 28 Oeste 57 Oeste 0 -- -- 69
2019-11-22 15:00:00 15.2 32 Oeste 51 Oeste 0 -- -- 78
2019-11-22 14:00:00 16 22 Sudoeste 44 Sudoeste 0.2 -- -- 85
2019-11-22 13:00:00 14.4 24 Sudoeste 39 Sudoeste 0 -- -- 92
2019-11-22 12:00:00 12.4 13 Oeste 33 Sur 1.4 -- -- 98
2019-11-22 11:00:00 11.7 19 Sur 31 Sur 2.2 -- -- 97
2019-11-22 10:00:00 10.7 13 Sur 32 Sur 2 -- -- 96
2019-11-22 09:00:00 10.7 16 Sur 31 Sur 0.8 -- -- 96
2019-11-22 08:00:00 10.6 17 Sur 29 Sur 0.6 -- -- 96
2019-11-22 07:00:00 10.6 17 Sur 26 Sur 2.4 -- -- 97
2019-11-22 06:00:00 10.2 10 Sur 21 Sur 1.6 -- -- 97
2019-11-22 05:00:00 10.3 10 Sur 15 Sudeste 1 -- -- 97
2019-11-22 04:00:00 10.4 10 Sudeste 16 Sudoeste 0.4 -- -- 96
2019-11-22 03:00:00 10.4 9 Sudoeste 15 Sudoeste 0 -- -- 96
2019-11-22 02:00:00 10.5 8 Sur 13 Sur 0 -- -- 96
2019-11-22 01:00:00 10.2 3 Sudoeste 6 Sudeste 0 -- -- 95
2019-11-22 00:00:00 9.9 0 Calma 7 Este 0 -- -- 95
2019-11-21 23:00:00 9.9 4 Este 7 Norte 0 -- -- 93
2019-11-21 22:00:00 10.2 4 Este 11 Este 0 -- -- 92
2019-11-21 21:00:00 10.3 5 Nordeste 10 Nordeste 0 -- -- 93
2019-11-21 20:00:00 9.7 5 Nordeste 9 Este 0 -- -- 92
2019-11-21 19:00:00 10.2 4 Nordeste 8 Nordeste 0 -- -- 91
2019-11-21 18:00:00 11.5 3 Sudeste 8 Sudeste 0 -- -- 86
2019-11-21 17:00:00 12.9 5 Sur 10 Oeste 0 -- -- 80
2019-11-21 16:00:00 12.5 3 Sudoeste 14 Noroeste 2 -- -- 86
2019-11-21 15:00:00 12.5 10 Oeste 17 Oeste 0.2 -- -- 81
2019-11-21 14:00:00 13.1 6 Oeste 17 Sudoeste 0 -- -- 82
2019-11-21 13:00:00 12.3 9 Sudoeste 15 Sudoeste 0 -- -- 90
2019-11-21 12:00:00 11 4 Oeste 10 Sur 0.2 -- -- 96
2019-11-21 11:00:00 10.3 2 Sudoeste 5 Sudoeste 0.4 -- -- 97
2019-11-21 10:00:00 9.4 0 Calma 5 Este 1.6 -- -- 97
2019-11-21 09:00:00 9 2 Este 5 Nordeste 0 -- -- 97
2019-11-21 08:00:00 -- -- -- -- -- -- -- -- --
2019-11-21 07:00:00 -- -- -- -- -- -- -- -- --
2019-11-21 06:00:00 -- -- -- -- -- -- -- -- --
2019-11-21 05:00:00 -- -- -- -- -- -- -- -- --
2019-11-21 04:00:00 -- -- -- -- -- -- -- -- --
2019-11-21 03:00:00 -- -- -- -- -- -- -- -- --
2019-11-21 02:00:00 -- -- -- -- -- -- -- -- --
2019-11-21 01:00:00 -- -- -- -- -- -- -- -- --
2019-11-21 00:00:00 -- -- -- -- -- -- -- -- --
2019-11-20 23:00:00 -- -- -- -- -- -- -- -- --
2019-11-20 22:00:00 -- -- -- -- -- -- -- -- --
2019-11-20 21:00:00 -- -- -- -- -- -- -- -- --
2019-11-20 20:00:00 -- -- -- -- -- -- -- -- --
2019-11-20 19:00:00 7 8 Este 25 Este 0 -- -- 95
2019-11-20 18:00:00 7.1 15 Este 26 Este 0 -- -- 96
2019-11-20 17:00:00 7.1 14 Este 25 Este 0.2 -- -- 96
2019-11-20 16:00:00 7.2 13 Este 23 Este 2.8 -- -- 96
2019-11-20 15:00:00 7.4 10 Este 23 Este 0.4 -- -- 96
2019-11-20 14:00:00 7.3 14 Este 24 Este 1 -- -- 96
2019-11-20 13:00:00 7.6 13 Este 19 Este 0.2 -- -- 95
2019-11-20 12:00:00 7.3 7 Este 17 Este 1.8 -- -- 95
2019-11-20 11:00:00 7.1 11 Este 18 Este 1.4 -- -- 95
2019-11-20 10:00:00 6.9 10 Este 21 Este 2.4 -- -- 96
2019-11-20 09:00:00 6.8 13 Este 21 Este 2 -- -- 96
2019-11-20 08:00:00 6.8 14 Este 23 Este 4 -- -- 95
2019-11-20 07:00:00 6.8 9 Este 16 Este 3.8 -- -- 95
2019-11-20 06:00:00 7.1 6 Este 10 Este 1.4 -- -- 93
2019-11-20 05:00:00 7.8 3 Nordeste 10 Nordeste 0 -- -- 84
2019-11-20 04:00:00 7.7 7 Este 10 Este 0.2 -- -- 86
2019-11-20 03:00:00 8.2 4 Este 6 Este 0 -- -- 84
2019-11-20 02:00:00 8.1 4 Nordeste 8 Este 0 -- -- 84
2019-11-20 01:00:00 8.1 4 Nordeste 8 Este 0 -- -- 82
2019-11-20 00:00:00 8.2 3 Sudeste 7 Este 0 -- -- 79
2019-11-19 23:00:00 8.4 6 Este 9 Este 0 -- -- 77
2019-11-19 22:00:00 9 5 Este 9 Este 0 -- -- 74
2019-11-19 21:00:00 9.3 2 Nordeste 5 Este 0 -- -- 70
2019-11-19 20:00:00 9.3 4 Este 5 Nordeste 0 -- -- 72
2019-11-19 19:00:00 9.5 4 Nordeste 6 Nordeste 0 -- -- 70
2019-11-19 18:00:00 9.8 3 Este 5 Este 0 -- -- 68
2019-11-19 17:00:00 10.1 0 Calma 5 Sudeste 0 -- -- 65
2019-11-19 16:00:00 10.3 2 Sur 6 Sur 0 -- -- 65
2019-11-19 15:00:00 10.3 3 Sudeste 10 Sudeste 0 -- -- 66
2019-11-19 14:00:00 10.1 5 Sudeste 11 Sudeste 0 -- -- 69
2019-11-19 13:00:00 9.2 5 Sudeste 12 Este 0 -- -- 71
2019-11-19 12:00:00 8.4 6 Sudeste 11 Este 0 -- -- 73
2019-11-19 11:00:00 7.4 5 Este 12 Nordeste 0 -- -- 78
2019-11-19 10:00:00 5.1 4 Nordeste 8 Nordeste 0 -- -- 87
2019-11-19 09:00:00 3.4 0 Calma 6 Norte 0 -- -- 87
2019-11-19 08:00:00 4.5 4 Nordeste 9 Nordeste 0 -- -- 83
2019-11-19 07:00:00 4.1 5 Nordeste 9 Nordeste 0 -- -- 83
2019-11-19 06:00:00 3.7 2 Oeste 11 Sudoeste 0 -- -- 84
2019-11-19 05:00:00 5.3 6 Nordeste 9 Nordeste 0 -- -- 75
2019-11-19 04:00:00 5.5 4 Este 12 Nordeste 0 -- -- 73
2019-11-19 03:00:00 5.8 6 Nordeste 10 Nordeste 0 -- -- 74
2019-11-19 02:00:00 7.2 7 Este 20 Nordeste 0 -- -- 66
2019-11-19 01:00:00 8.6 14 Norte 29 Norte 0 -- -- 62
2019-11-19 00:00:00 9 20 Norte 30 Norte 0 -- -- 61
2019-11-18 23:00:00 8.7 20 Norte 29 Norte 0 -- -- 63
2019-11-18 22:00:00 8.4 10 Nordeste 29 Norte 0 -- -- 65
2019-11-18 21:00:00 9.4 12 Norte 23 Norte 0 -- -- 61
2019-11-18 20:00:00 8.9 9 Norte 12 Norte 0 -- -- 66
2019-11-18 19:00:00 9.6 6 Nordeste 18 Noroeste 0 -- -- 66
2019-11-18 18:00:00 12.2 11 Noroeste 18 Noroeste 0 -- -- 57
2019-11-18 17:00:00 13.4 12 Noroeste 28 Noroeste 0 -- -- 54
2019-11-18 16:00:00 13.7 12 Noroeste 23 Noroeste 0 -- -- 53
2019-11-18 15:00:00 13.3 13 Noroeste 29 Norte 0 -- -- 56
2019-11-18 14:00:00 12.6 17 Norte 32 Norte 0 -- -- 56
2019-11-18 13:00:00 11.8 23 Norte 39 Norte 0 -- -- 59
2019-11-18 12:00:00 10.5 27 Norte 45 Norte 0 -- -- 66
2019-11-18 11:00:00 9 31 Norte 42 Norte 0 -- -- 72
2019-11-18 10:00:00 7.8 24 Norte 41 Norte 0 -- -- 74
2019-11-18 09:00:00 6.2 25 Norte 35 Norte 0 -- -- 81
2019-11-18 08:00:00 6.2 22 Norte 37 Norte 0 -- -- 80
2019-11-18 07:00:00 6.6 17 Norte 25 Norte 0 -- -- 78
2019-11-18 06:00:00 6.7 12 Norte 28 Noroeste 0 -- -- 78
2019-11-18 05:00:00 6.7 12 Norte 29 Noroeste 0 -- -- 78
2019-11-18 04:00:00 7.6 18 Noroeste 34 Noroeste 0 -- -- 74
2019-11-18 03:00:00 7.9 22 Noroeste 39 Norte 0 -- -- 73
2019-11-18 02:00:00 8.6 28 Noroeste 51 Norte 0 -- -- 70
2019-11-18 01:00:00 8.2 26 Noroeste 49 Norte 0 -- -- 74
2019-11-18 00:00:00 8.7 28 Noroeste 45 Norte 0 -- -- 74
2019-11-17 23:00:00 8.6 24 Noroeste 41 Noroeste 0 -- -- 79
2019-11-17 22:00:00 9.7 24 Noroeste 37 Noroeste 0 -- -- 81
2019-11-17 21:00:00 9.9 22 Noroeste 44 Noroeste 0.8 -- -- 92
2019-11-17 20:00:00 9 21 Noroeste 34 Norte 0.2 -- -- 95
2019-11-17 19:00:00 10.6 9 Oeste 14 Oeste 0.6 -- -- 96
2019-11-17 18:00:00 10.1 8 Sudoeste 10 Oeste 0.2 -- -- 96
2019-11-17 17:00:00 10 5 Sudoeste 11 Oeste 1.8 -- -- 96
2019-11-17 16:00:00 9.8 9 Oeste 16 Oeste 0.6 -- -- 94
2019-11-17 15:00:00 10.2 9 Sudoeste 15 Sudoeste 0 -- -- 93
2019-11-17 14:00:00 9.1 5 Oeste 9 Sudoeste 0 -- -- 94
2019-11-17 13:00:00 8.7 3 Sudoeste 7 Sudoeste 0 -- -- 94
2019-11-17 12:00:00 8.2 4 Sudoeste 7 Sur 0 -- -- 95
2019-11-17 11:00:00 7.4 0 Calma 3 Noroeste 0 -- -- 94
2019-11-17 10:00:00 6.8 0 Calma 5 Sudeste 0 -- -- 95
2019-11-17 09:00:00 6.4 4 Sudeste 6 Este 0.4 -- -- 95
2019-11-17 08:00:00 6.3 4 Sudeste 6 Sur 0.6 -- -- 94
2019-11-17 07:00:00 6.3 4 Sur 7 Sur 0.4 -- -- 93
2019-11-17 06:00:00 6.8 3 Sur 8 Oeste 0 -- -- 90
2019-11-17 05:00:00 7 6 Oeste 19 Oeste 0 -- -- 83
2019-11-17 04:00:00 7 12 Sudoeste 19 Sudoeste 0 -- -- 74
2019-11-17 03:00:00 6.3 8 Oeste 13 Sudoeste 0 -- -- 75
2019-11-17 02:00:00 6.3 3 Oeste 12 Sur 0 -- -- 73
2019-11-17 01:00:00 6.6 5 Oeste 10 Oeste 0 -- -- 70
2019-11-17 00:00:00 6.9 3 Oeste 15 Oeste 0 -- -- 67
2019-11-16 23:00:00 8.2 14 Noroeste 24 Noroeste 0 -- -- 61
2019-11-16 22:00:00 8.7 18 Noroeste 24 Norte 0 -- -- 58
2019-11-16 21:00:00 9.4 16 Norte 24 Noroeste 0 -- -- 56
2019-11-16 20:00:00 10.4 16 Noroeste 28 Noroeste 0 -- -- 54
2019-11-16 19:00:00 10.3 19 Oeste 28 Oeste 0 -- -- 54
2019-11-16 18:00:00 10.9 9 Oeste 26 Oeste 0 -- -- 52
2019-11-16 17:00:00 11.6 15 Oeste 27 Noroeste 0 -- -- 51
2019-11-16 16:00:00 11.5 18 Oeste 31 Oeste 0 -- -- 48
2019-11-16 15:00:00 12.6 12 Oeste 28 Oeste 0 -- -- 47
2019-11-16 14:00:00 11.1 14 Noroeste 27 Oeste 0 -- -- 52
2019-11-16 13:00:00 11.3 5 Sur 25 Noroeste 0 -- -- 50
2019-11-16 12:00:00 9.4 9 Noroeste 26 Norte 0 -- -- 58
2019-11-16 11:00:00 7.8 16 Noroeste 42 Norte 0 -- -- 60
2019-11-16 10:00:00 6.1 19 Norte 36 Norte 0 -- -- 70
2019-11-16 09:00:00 4.3 16 Norte 27 Norte 0 -- -- 76
2019-11-16 08:00:00 3.8 9 Norte 22 Norte 0 -- -- 77
2019-11-16 07:00:00 3.7 5 Norte 19 Norte 0 -- -- 77
2019-11-16 06:00:00 4.7 15 Norte 37 Norte 0 -- -- 72
2019-11-16 05:00:00 5 28 Norte 41 Norte 0 -- -- 71
2019-11-16 04:00:00 5 19 Norte 33 Noroeste 0 -- -- 72
2019-11-16 03:00:00 5.4 21 Norte 33 Norte 0 -- -- 70
2019-11-16 02:00:00 6 22 Noroeste 36 Noroeste 0 -- -- 67
2019-11-16 01:00:00 5.7 14 Norte 25 Norte 0 -- -- 68
2019-11-16 00:00:00 4.5 3 Este 22 Noroeste 0 -- -- 70
2019-11-15 23:00:00 6 14 Noroeste 29 Noroeste 0 -- -- 64
2019-11-15 22:00:00 6.7 18 Noroeste 31 Noroeste 0 -- -- 61
2019-11-15 21:00:00 7.1 23 Noroeste 37 Norte 0 -- -- 58
2019-11-15 20:00:00 7.5 22 Noroeste 41 Norte 0 -- -- 55
2019-11-15 19:00:00 8.3 22 Norte 40 Noroeste 0 -- -- 52
2019-11-15 18:00:00 8.9 10 Noroeste 29 Norte 0 -- -- 50
2019-11-15 17:00:00 10.3 17 Noroeste 39 Noroeste 0 -- -- 45
2019-11-15 16:00:00 11.2 23 Noroeste 40 Norte 0 -- -- 43
2019-11-15 15:00:00 11.1 17 Noroeste 37 Norte 0 -- -- 45
2019-11-15 14:00:00 10.6 22 Noroeste 38 Noroeste 0 -- -- 50
2019-11-15 13:00:00 9.7 22 Noroeste 41 Norte 0 -- -- 54
2019-11-15 12:00:00 8.6 17 Noroeste 36 Norte 0 -- -- 59
2019-11-15 11:00:00 7.2 10 Noroeste 41 Norte 0 -- -- 63
2019-11-15 10:00:00 6.1 14 Noroeste 23 Norte 0 -- -- 65
2019-11-15 09:00:00 5.5 8 Oeste 34 Oeste 0 -- -- 66
2019-11-15 08:00:00 5.4 22 Oeste 44 Oeste 0 -- -- 64
2019-11-15 07:00:00 5.9 24 Noroeste 40 Oeste 0 -- -- 61
2019-11-15 06:00:00 6.2 26 Noroeste 49 Oeste 0 -- -- 60
2019-11-15 05:00:00 6.6 28 Oeste 55 Oeste 0 -- -- 58
2019-11-15 04:00:00 7.2 34 Oeste 52 Oeste 0 -- -- 56
2019-11-15 03:00:00 6.9 24 Noroeste 40 Oeste 0 -- -- 58
2019-11-15 02:00:00 7.6 24 Oeste 47 Oeste 0 -- -- 57
2019-11-15 01:00:00 7.7 22 Oeste 50 Oeste 0 -- -- 60
2019-11-15 00:00:00 8.1 28 Oeste 59 Oeste 0 -- -- 60
2019-11-14 23:00:00 8.5 34 Noroeste 53 Oeste 0 -- -- 60
2019-11-14 22:00:00 8.9 35 Oeste 56 Oeste 0 -- -- 59
2019-11-14 21:00:00 8.5 26 Oeste 38 Oeste 0 -- -- 64
2019-11-14 20:00:00 9.5 23 Oeste 41 Oeste 0 -- -- 62
2019-11-14 19:00:00 9.4 24 Oeste 65 Oeste 0 -- -- 67
2019-11-14 18:00:00 10.2 27 Oeste 49 Oeste 0 -- -- 65
2019-11-14 17:00:00 10.6 32 Oeste 51 Oeste 0 -- -- 67
2019-11-14 16:00:00 9.1 26 Oeste 53 Oeste 0.4 -- -- 77
2019-11-14 15:00:00 11.5 33 Oeste 57 Oeste 0 -- -- 58
2019-11-14 14:00:00 11.3 35 Oeste 51 Oeste 0 -- -- 55
2019-11-14 13:00:00 11.2 32 Oeste 46 Oeste 0 -- -- 56
2019-11-14 12:00:00 10.5 30 Oeste 50 Oeste 0 -- -- 56
2019-11-14 11:00:00 10.4 25 Oeste 40 Oeste 0 -- -- 63
2019-11-14 10:00:00 9 13 Noroeste 32 Noroeste 0 -- -- 74
2019-11-14 09:00:00 9.4 22 Noroeste 47 Oeste 0.2 -- -- 74
2019-11-14 08:00:00 9.9 24 Oeste 42 Oeste 0.2 -- -- 81
2019-11-14 07:00:00 10.4 21 Oeste 35 Oeste 0 -- -- 85
2019-11-14 06:00:00 10.5 20 Oeste 40 Oeste 0 -- -- 87
2019-11-14 05:00:00 9.9 20 Oeste 32 Sudoeste 0 -- -- 86
2019-11-14 04:00:00 8.6 12 Sudoeste 25 Sudoeste 0 -- -- 89
2019-11-14 03:00:00 7.6 15 Oeste 19 Sudoeste 0 -- -- 85
2019-11-14 02:00:00 9 14 Oeste 28 Oeste 0 -- -- 77
2019-11-14 01:00:00 9.8 21 Oeste 39 Oeste 0 -- -- 73
2019-11-14 00:00:00 10.4 18 Oeste 37 Oeste 0 -- -- 73
2019-11-13 23:00:00 11.1 21 Oeste 37 Oeste 0 -- -- 72
2019-11-13 22:00:00 12.2 23 Oeste 40 Oeste 0 -- -- 68
2019-11-13 21:00:00 12.9 22 Oeste 35 Oeste 0 -- -- 67
2019-11-13 20:00:00 14.2 28 Oeste 40 Oeste 0 -- -- 65
2019-11-13 19:00:00 15.3 22 Oeste 41 Oeste 0 -- -- 60
2019-11-13 18:00:00 17.7 19 Oeste 34 Sudoeste 0 -- -- 57
2019-11-13 17:00:00 19.4 21 Oeste 36 Oeste 0 -- -- 54
2019-11-13 16:00:00 19.8 21 Oeste 41 Oeste 0 -- -- 52
2019-11-13 15:00:00 20.1 23 Oeste 39 Oeste 0 -- -- 52
2019-11-13 14:00:00 19 21 Oeste 36 Oeste 0 -- -- 55
2019-11-13 13:00:00 18.4 18 Noroeste 41 Oeste 0 -- -- 58
2019-11-13 12:00:00 17.8 20 Oeste 44 Oeste 0 -- -- 62
2019-11-13 11:00:00 16 23 Oeste 39 Oeste 0 -- -- 67
2019-11-13 10:00:00 14.6 22 Oeste 37 Oeste 0 -- -- 75
2019-11-13 09:00:00 13.7 26 Oeste 41 Oeste 0 -- -- 79
2019-11-13 08:00:00 12.9 17 Oeste 33 Oeste 0 -- -- 93
2019-11-13 07:00:00 13.5 20 Oeste 32 Oeste 0 -- -- 92
2019-11-13 06:00:00 13.2 20 Oeste 37 Oeste 0 -- -- 92
2019-11-13 05:00:00 12.7 21 Oeste 40 Oeste 0 -- -- 94
2019-11-13 04:00:00 12.6 28 Oeste 44 Oeste 0 -- -- 92
2019-11-13 03:00:00 12.7 30 Oeste 42 Oeste 0 -- -- 90
2019-11-13 02:00:00 12.5 17 Sudoeste 29 Sudoeste 0 -- -- 86
2019-11-13 01:00:00 12.2 21 Oeste 29 Oeste 0 -- -- 87
2019-11-13 00:00:00 12.5 17 Sudoeste 31 Oeste 0 -- -- 87
2019-11-12 23:00:00 12.6 14 Oeste 27 Sudoeste 0 -- -- 84
2019-11-12 22:00:00 12.4 18 Oeste 30 Oeste 0 -- -- 83
2019-11-12 21:00:00 12.3 16 Oeste 30 Sudoeste 0 -- -- 80
2019-11-12 20:00:00 12.9 21 Oeste 32 Oeste 0 -- -- 75
2019-11-12 19:00:00 14.2 25 Oeste 38 Oeste 0 -- -- 67
2019-11-12 18:00:00 14.8 15 Oeste 29 Oeste 0 -- -- 56
2019-11-12 17:00:00 16 20 Oeste 32 Oeste 0 -- -- 54
2019-11-12 16:00:00 16.3 16 Oeste 35 Noroeste 0 -- -- 50
2019-11-12 15:00:00 15.8 23 Noroeste 38 Oeste 0 -- -- 48
2019-11-12 14:00:00 14.9 13 Noroeste 44 Noroeste 0 -- -- 51
2019-11-12 13:00:00 13.8 23 Noroeste 38 Noroeste 0 -- -- 52
2019-11-12 12:00:00 13 17 Norte 29 Norte 0 -- -- 55
2019-11-12 11:00:00 11.2 12 Noroeste 24 Norte 0 -- -- 58
2019-11-12 10:00:00 10.3 14 Norte 20 Norte 0 -- -- 60
2019-11-12 09:00:00 9.4 13 Noroeste 22 Norte 0 -- -- 62
2019-11-12 08:00:00 8.4 13 Norte 25 Noroeste 0 -- -- 68
2019-11-12 07:00:00 8.3 3 Noroeste 9 Norte 0 -- -- 69
2019-11-12 06:00:00 9 6 Noroeste 27 Noroeste 0 -- -- 67
2019-11-12 05:00:00 7.9 3 Sudeste 28 Noroeste 0 -- -- 75
2019-11-12 04:00:00 9.7 14 Norte 32 Norte 0 -- -- 67
2019-11-12 03:00:00 9.7 5 Sur 31 Norte 0 -- -- 71
2019-11-12 02:00:00 10.6 22 Norte 46 Norte 0 -- -- 67
2019-11-12 01:00:00 11.2 28 Norte 41 Norte 0 -- -- 66
2019-11-12 00:00:00 11.3 22 Norte 36 Norte 0 -- -- 68
2019-11-11 23:00:00 11.9 25 Norte 41 Noroeste 0 -- -- 66
2019-11-11 22:00:00 12.3 21 Noroeste 30 Noroeste 0 -- -- 67
2019-11-11 21:00:00 12.8 14 Norte 28 Noroeste 0 -- -- 65
2019-11-11 20:00:00 13.8 18 Noroeste 31 Noroeste 0 -- -- 63
2019-11-11 19:00:00 14.6 16 Norte 35 Noroeste 0 -- -- 62
2019-11-11 18:00:00 15.1 14 Norte 21 Norte 0 -- -- 72
2019-11-11 17:00:00 15.8 8 Nordeste 13 Oeste 0 -- -- 78
2019-11-11 16:00:00 16.1 7 Oeste 23 Oeste 0 -- -- 77
2019-11-11 15:00:00 15.4 13 Oeste 27 Oeste 0 -- -- 80
2019-11-11 14:00:00 13.8 16 Oeste 24 Oeste 0 -- -- 85
2019-11-11 13:00:00 12.8 14 Oeste 20 Oeste 0 -- -- 90
2019-11-11 12:00:00 11.5 5 Oeste 10 Oeste 0 -- -- 93
2019-11-11 11:00:00 11 8 Oeste 13 Oeste 0 -- -- 93
2019-11-11 10:00:00 10.6 9 Oeste 18 Oeste 0 -- -- 92
2019-11-11 09:00:00 10.1 9 Sudoeste 18 Oeste 0 -- -- 92
2019-11-11 08:00:00 9.7 7 Sudoeste 10 Sudoeste 0 -- -- 92
2019-11-11 07:00:00 9.7 4 Sudoeste 10 Sudoeste 0 -- -- 91
2019-11-11 06:00:00 9.6 6 Oeste 9 Sudoeste 0 -- -- 88
2019-11-11 05:00:00 9.6 6 Sudoeste 9 Oeste 0 -- -- 87
2019-11-11 04:00:00 9.5 6 Oeste 9 Oeste 0 -- -- 86
2019-11-11 03:00:00 9.6 3 Sudoeste 7 Sudoeste 0 -- -- 85
2019-11-11 02:00:00 10.1 2 Sudoeste 17 Noroeste 0 -- -- 81
2019-11-11 01:00:00 10.3 10 Noroeste 24 Norte 0 -- -- 76
2019-11-11 00:00:00 9.8 7 Noroeste 22 Oeste 0 -- -- 79
2019-11-10 23:00:00 9.7 11 Oeste 33 Noroeste 0 -- -- 79
2019-11-10 22:00:00 9.7 21 Noroeste 44 Noroeste 0 -- -- 77
2019-11-10 21:00:00 9.7 20 Oeste 35 Oeste 0 -- -- 76
2019-11-10 20:00:00 10.3 12 Noroeste 50 Oeste 0 -- -- 71
2019-11-10 19:00:00 10.5 29 Oeste 62 Oeste 0 -- -- 69
2019-11-10 18:00:00 10.7 34 Oeste 55 Oeste 0 -- -- 68
2019-11-10 17:00:00 10.4 29 Noroeste 40 Noroeste 0.2 -- -- 70
2019-11-10 16:00:00 10.4 24 Noroeste 35 Noroeste 0.2 -- -- 70
2019-11-10 15:00:00 10 20 Oeste 36 Oeste 0.8 -- -- 74
2019-11-10 14:00:00 9.7 17 Noroeste 42 Oeste 0.8 -- -- 72
2019-11-10 13:00:00 11.6 23 Oeste 35 Oeste 0 -- -- 57
2019-11-10 12:00:00 11.7 15 Noroeste 51 Noroeste 0 -- -- 52
2019-11-10 11:00:00 11.4 22 Norte 41 Norte 0 -- -- 54
2019-11-10 10:00:00 10.6 15 Noroeste 30 Norte 0 -- -- 61
2019-11-10 09:00:00 9.5 19 Noroeste 36 Noroeste 0 -- -- 65
2019-11-10 08:00:00 9.2 21 Noroeste 44 Noroeste 0 -- -- 68
2019-11-10 07:00:00 9.4 23 Noroeste 42 Noroeste 0 -- -- 69
2019-11-10 06:00:00 9.8 21 Noroeste 42 Oeste 0 -- -- 69
2019-11-10 05:00:00 10.2 16 Noroeste 48 Norte 0 -- -- 70
2019-11-10 04:00:00 10.6 29 Noroeste 47 Norte 0 -- -- 67
2019-11-10 03:00:00 10.8 27 Noroeste 44 Noroeste 0 -- -- 68
2019-11-10 02:00:00 11.1 15 Noroeste 33 Noroeste 0 -- -- 67
2019-11-10 01:00:00 11.1 15 Noroeste 51 Oeste 0 -- -- 68
2019-11-10 00:00:00 11.7 27 Noroeste 48 Noroeste 0 -- -- 67
2019-11-09 23:00:00 12.1 32 Oeste 46 Oeste 0.2 -- -- 71
2019-11-09 22:00:00 11.9 28 Noroeste 44 Noroeste 0 -- -- 78
2019-11-09 21:00:00 11.6 14 Noroeste 30 Noroeste 0 -- -- 86
2019-11-09 20:00:00 10.9 12 Noroeste 23 Oeste 0 -- -- 93
2019-11-09 19:00:00 11.6 5 Oeste 20 Oeste 0.4 -- -- 94
2019-11-09 18:00:00 11.5 12 Oeste 21 Oeste 2.4 -- -- 95
2019-11-09 17:00:00 11.6 13 Oeste 22 Oeste 1.6 -- -- 93
2019-11-09 16:00:00 12.2 19 Oeste 32 Oeste 0.2 -- -- 85
2019-11-09 15:00:00 13.1 14 Oeste 28 Sudoeste 0 -- -- 70
2019-11-09 14:00:00 12.9 21 Oeste 31 Sudoeste 0 -- -- 64
2019-11-09 13:00:00 13.7 17 Sudoeste 26 Sudoeste 0 -- -- 55
2019-11-09 12:00:00 11.8 15 Sudoeste 23 Oeste 0 -- -- 61
2019-11-09 11:00:00 10.2 16 Oeste 26 Oeste 0 -- -- 67
2019-11-09 10:00:00 8.7 13 Oeste 19 Sudoeste 0 -- -- 74
2019-11-09 09:00:00 6.3 2 Sudeste 10 Oeste 0 -- -- 84
2019-11-09 08:00:00 4.8 4 Sudoeste 10 Sudoeste 0 -- -- 84
2019-11-09 07:00:00 4.5 3 Sur 8 Sudoeste 0 -- -- 85
2019-11-09 06:00:00 4.5 2 Sudeste 10 Sudoeste 0 -- -- 83
2019-11-09 05:00:00 4.8 7 Oeste 12 Sudoeste 0 -- -- 81
2019-11-09 04:00:00 6.2 0 Calma 9 Sur 0 -- -- 75
2019-11-09 03:00:00 7.4 7 Sudeste 29 Noroeste 0 -- -- 70
2019-11-09 02:00:00 8.8 19 Noroeste 33 Noroeste 0 -- -- 65
2019-11-09 01:00:00 8.7 6 Noroeste 23 Noroeste 0 -- -- 65
2019-11-09 00:00:00 9.4 16 Noroeste 43 Noroeste 0 -- -- 62
2019-11-08 23:00:00 9.6 33 Noroeste 49 Noroeste 0 -- -- 61
2019-11-08 22:00:00 9.8 18 Noroeste 27 Noroeste 0 -- -- 59
2019-11-08 21:00:00 10.2 19 Noroeste 32 Oeste 0 -- -- 54
2019-11-08 20:00:00 10.8 23 Noroeste 39 Noroeste 0 -- -- 55
2019-11-08 19:00:00 11.4 12 Noroeste 30 Noroeste 0 -- -- 55
2019-11-08 18:00:00 13.2 7 Noroeste 28 Noroeste 0 -- -- 48
2019-11-08 17:00:00 13.9 19 Noroeste 35 Noroeste 0 -- -- 46
2019-11-08 16:00:00 14.2 23 Norte 40 Noroeste 0 -- -- 47
2019-11-08 15:00:00 13.9 18 Noroeste 39 Oeste 0 -- -- 46
2019-11-08 14:00:00 13.2 24 Noroeste 41 Noroeste 0 -- -- 48
2019-11-08 13:00:00 12.1 21 Noroeste 41 Norte 0 -- -- 51
2019-11-08 12:00:00 11.5 14 Norte 37 Noroeste 0 -- -- 53
2019-11-08 11:00:00 10 22 Noroeste 37 Noroeste 0 -- -- 57
2019-11-08 10:00:00 8.7 17 Noroeste 37 Noroeste 0 -- -- 61
2019-11-08 09:00:00 7.6 14 Noroeste 35 Noroeste 0 -- -- 65
2019-11-08 08:00:00 6.2 6 Sur 29 Noroeste 0 -- -- 76
2019-11-08 07:00:00 7.1 13 Noroeste 45 Oeste 0 -- -- 67
2019-11-08 06:00:00 7.5 27 Oeste 39 Oeste 0 -- -- 69
2019-11-08 05:00:00 8 26 Oeste 44 Oeste 0 -- -- 64
2019-11-08 04:00:00 7.5 23 Oeste 35 Noroeste 0 -- -- 71
2019-11-08 03:00:00 7.2 21 Oeste 29 Oeste 0 -- -- 80
2019-11-08 02:00:00 7.8 12 Oeste 23 Oeste 0 -- -- 77
2019-11-08 01:00:00 8.9 20 Oeste 33 Oeste 0 -- -- 66
2019-11-08 00:00:00 8.1 11 Oeste 23 Oeste 0 -- -- 75